Change the Weather History Date:

Tuesday, December 4, 2012

  Actual Average Record
Temperature  
Mean Temperature 66 °F -  
Max Temperature 75 °F 60 °F 78 °F (1998)
Min Temperature 55 °F 41 °F 25 °F (2006)
Cooling Degree Days 1    
Growing Degree Days 16 (Base 50)    
Moisture  
Dew Point 49 °F    
Average Humidity 65    
Maximum Humidity 93    
Minimum Humidity 32    
Precipitation  
Precipitation 0.00 in - - ()
Sea Level Pressure  
Sea Level Pressure 30.15 in    
Wind  
Wind Speed 4 mph (NNW)    
Max Wind Speed 12 mph    
Max Gust Speed 22 mph    
Visibility 9 miles    
Events      
Averages and records for this station are not official NWS values.
T = Trace of Precipitation, MM = Missing Value Source: NWS Daily Summary

Daily Weather History Graph

Daily Weather History Graph

Search for Another Location

Airport or City:

Trip Planner

Search our weather history database for the weather conditions in past years. The results will help you decide how hot, cold, wet, or windy it might be!

Date:

Astronomy

Dec. 04, 2012 Rise Set
Actual Time 7:15 AM CST 5:31 PM CST
Civil Twilight 6:49 AM CST 5:57 PM CST
Nautical Twilight 6:19 AM CST 6:27 PM CST
Astronomical Twilight 5:50 AM CST 6:56 PM CST
Moon 11:04 PM CST (12/4) 11:24 AM CST (12/4)
Length of Visible Light 11h 08m
Length of Day
10h 15m
Waning Gibbous, 69% of the Moon is Illuminated
Dec 4
Waning Gibbous
Dec 6
Last Quarter
Dec 13
New
Dec 19
First Quarter
Dec 28
Full

Hourly Weather History & Observations

Time (CST) Temp. Dew Point Humidity Pressure Visibility Wind Dir Wind Speed Gust Speed Precip Events Conditions
12:53 AM 63.0 °F 57.9 °F 84% 30.02 in 10.0 mi South 6.9 mph - N/A   Clear
1:53 AM 62.1 °F 57.9 °F 86% 30.04 in 10.0 mi Calm Calm - N/A   Partly Cloudy
2:53 AM 60.1 °F 57.9 °F 93% 30.03 in 10.0 mi SW 3.5 mph - N/A   Clear
3:53 AM 60.1 °F 57.0 °F 90% 30.04 in 9.0 mi SW 3.5 mph - N/A   Clear
4:53 AM 57.9 °F 55.9 °F 93% 30.05 in 8.0 mi Calm Calm - N/A   Scattered Clouds
5:12 AM 59.0 °F 55.9 °F 90% 30.09 in 8.0 mi Calm Calm - N/A   Overcast
5:44 AM 60.1 °F 57.9 °F 93% 30.10 in 9.0 mi Calm Calm - N/A   Overcast
5:53 AM 60.1 °F 57.0 °F 90% 30.07 in 9.0 mi Calm Calm - N/A   Overcast
6:13 AM 60.1 °F 57.9 °F 93% 30.11 in 8.0 mi Calm Calm - N/A   Overcast
6:20 AM 60.1 °F 57.9 °F 93% 30.11 in 8.0 mi Calm Calm - N/A   Mostly Cloudy
6:42 AM 59.0 °F 57.0 °F 93% 30.12 in 8.0 mi Calm Calm - N/A   Mostly Cloudy
6:53 AM 59.0 °F 57.0 °F 93% 30.10 in 8.0 mi Calm Calm - N/A   Mostly Cloudy
7:09 AM 59.0 °F 57.0 °F 93% 30.13 in 8.0 mi Calm Calm - N/A   Scattered Clouds
7:53 AM 59.0 °F 57.0 °F 93% 30.13 in 8.0 mi NW 4.6 mph - N/A   Mostly Cloudy
8:45 AM 61.0 °F 53.1 °F 75% 30.19 in 9.0 mi North 10.4 mph - N/A   Mostly Cloudy
8:53 AM 60.1 °F 54.0 °F 80% 30.17 in 8.0 mi North 8.1 mph - N/A   Scattered Clouds
9:53 AM 61.0 °F 44.1 °F 54% 30.20 in 10.0 mi NNE 8.1 mph - N/A   Scattered Clouds
10:04 AM 60.1 °F 44.1 °F 55% 30.23 in 10.0 mi North 8.1 mph - N/A   Mostly Cloudy
10:45 AM 62.1 °F 44.1 °F 52% 30.23 in 10.0 mi North 5.8 mph - N/A   Overcast
10:53 AM 62.1 °F 44.1 °F 52% 30.21 in 10.0 mi North 5.8 mph - N/A   Overcast
11:53 AM 66.9 °F 44.1 °F 44% 30.18 in 10.0 mi NW 8.1 mph - N/A   Clear
12:53 PM 68.0 °F 44.1 °F 42% 30.15 in 10.0 mi WNW 9.2 mph - N/A   Clear
1:53 PM 73.9 °F 45.0 °F 35% 30.13 in 10.0 mi North 11.5 mph - N/A   Clear
2:53 PM 75.0 °F 43.0 °F 32% 30.13 in 10.0 mi North 11.5 mph 21.9 mph N/A   Clear
3:53 PM 73.0 °F 43.0 °F 34% 30.14 in 10.0 mi North 11.5 mph - N/A   Clear
4:53 PM 71.1 °F 44.1 °F 38% 30.15 in 10.0 mi North 10.4 mph - N/A   Clear
5:53 PM 66.9 °F 45.0 °F 45% 30.17 in 10.0 mi North 6.9 mph - N/A   Clear
6:53 PM 64.0 °F 43.0 °F 46% 30.21 in 10.0 mi NNW 9.2 mph - N/A   Clear
7:53 PM 62.1 °F 41.0 °F 46% 30.23 in 10.0 mi North 5.8 mph - N/A   Clear
8:53 PM 61.0 °F 37.9 °F 42% 30.23 in 10.0 mi North 8.1 mph - N/A   Clear
9:53 PM 60.1 °F 33.1 °F 36% 30.24 in 10.0 mi NNW 9.2 mph - N/A   Clear
10:53 PM 57.0 °F 28.9 °F 34% 30.25 in 10.0 mi North 4.6 mph - N/A   Clear
11:53 PM 55.0 °F 27.0 °F 34% 30.25 in 10.0 mi North 5.8 mph - N/A   Clear